User: anonymous   Login
Location: Unspecified
(0.0000°N, 0.0000°E)
Time: 04:40:08
(UTC+00:00)
Language:

NOSS 3-1 (C) - Orbit

View from above orbital plane
View from above orbital plane
View from above satellite
View from above satellite

Ground track
Ground track

The orbit data is extracted from the following two-line orbital elements,

1 26907U 01040C   18260.15956691 0.00000000  00000-0  00000-0 0    01
2 26907  63.4072 300.4298 0409000 359.9407   0.0593 13.41282361    02
Epoch (UTC): 17 September 2018 03:49:46
Eccentricity: 0.0409000
inclination: 63.4072°
perigee height: 798 km
apogee height: 1410 km
right ascension of ascending node: 300.4298°
argument of perigee: 359.9407°
revolutions per day: 13.41282361
mean anomaly at epoch: 0.0593°
orbit number at epoch: 0

The dashed part of the orbit path shows where the satellite is in the earth's shadow,  

DLR